Location: Steinbach
(49.5170°N, 96.6830°W)
Time: 01:48:14
(UTC-06:00)

Daily predictions for brighter satellites

Satellite Brightness Start Highest point End
(mag) Time Altitude Azimuth Time Altitude Azimuth Time Altitude Azimuth
CENTAUR R/B 4.2 03:41:20 30° ENE 03:41:20 30° ENE 03:45:00 10° NE
ATLAS 3B R/B 4.4 04:01:52 24° NNE 04:01:52 24° NNE 04:05:34 10° NE
CZ-4C R/B 4.3 04:12:18 22° NNE 04:12:18 22° NNE 04:15:50 10° NE
Cosmos 2369 Rocket 3.8 04:14:29 30° NE 04:14:29 30° NE 04:19:06 10° ESE
ATLAS 5 CENTAUR R/B 4.4 04:20:11 16° NNE 04:20:11 16° NNE 04:21:57 10° NE
Cosmos 2219 Rocket 4.4 04:28:35 15° NNE 04:28:35 15° NNE 04:29:37 10° NNE
Cosmos 2333 Rocket 4.1 04:52:28 19° N 04:52:28 19° N 04:54:14 10° NNE
Cosmos 1943 Rocket 3.8 04:50:42 24° NNE 04:52:29 29° NE 04:57:13 10° ESE
Cosmos 2056 Rocket 4.3 04:59:37 43° SSE 04:59:37 43° SSE 05:03:00 10° SSE
Lacrosse 5 rocket 3.5 05:02:35 21° NE 05:02:35 21° NE 05:04:27 10° NE
Lacrosse 4 Rocket 3.5 05:02:48 20° NE 05:02:54 20° NE 05:06:01 10° E
SL-16 R/B 2.8 05:09:01 44° N 05:09:01 44° N 05:12:59 10° NNE
ADEOS II 3.5 05:03:45 10° N 05:06:01 26° N 05:06:01 26° N
COSMO-SKYMED 1 3.2 05:07:18 10° SSE 05:11:25 53° ENE 05:11:25 53° ENE
Meteor 1-19 Rocket 4.5 05:17:32 18° N 05:22:02 70° ENE 05:27:48 10° SSE
Okean 1-7 Rocket 4.1 05:21:27 48° NNE 05:22:18 58° ENE 05:26:37 10° SSE
Lacrosse 5 2.9 05:24:03 26° S 05:26:26 44° SE 05:31:16 10° ENE
Cosmos 1300 Rocket 3.8 05:23:36 10° S 05:27:59 67° E 05:32:22 10° NNE
CENTAUR R/B 2.8 05:28:31 49° NW 05:29:05 50° NW 05:36:09 10° NE
SL-08 ROCKET BODY 4.2 05:25:08 10° SSW 05:31:03 70° WNW 05:36:55 10° N
Meteor 1-25 Rocket 4.2 05:31:06 61° W 05:31:30 62° WNW 05:37:15 10° N
Meteor 1-28 Rocket 4.2 05:29:28 10° SE 05:33:06 45° ENE 05:34:24 32° NNE
Nadezhda 3 Rocket 4.0 05:28:26 10° N 05:34:51 85° E 05:41:14 10° S
Cosmos 2237 Rocket 3.7 05:38:01 20° NNW 05:38:01 20° NNW 05:40:38 10° NNE
Meteor 1-11 Rocket 4.2 05:31:03 10° S 05:36:47 63° E 05:42:25 10° NNE
Cosmos 1340 4.4 05:36:09 16° NNE 05:38:38 31° ENE 05:42:01 10° SE
SKYMED 3 4.4 05:37:12 10° S 05:41:33 79° WSW 05:41:49 75° WNW
Cosmos 1680 Rocket 4.4 05:43:36 32° NNW 05:43:36 32° NNW 05:46:56 10° NNE
Meteor 1-13 Rocket 4.2 05:38:47 23° NNW 05:42:37 72° W 05:48:32 10° S
Tiangong 2 3.3 05:45:33 19° SSE 05:45:33 19° SSE 05:47:15 10° SE
Cosmos 1452 Rocket 3.4 05:44:46 35° NNW 05:47:04 88° WSW 05:52:21 10° SSE
Meteor 1-23 Rocket 4.4 05:42:10 10° N 05:47:44 70° ENE 05:53:16 10° SSE
Cosmos 2327 Rocket 4.5 05:41:57 10° SSW 05:48:11 58° WNW 05:54:24 10° N
ATLAS 3B R/B 4.1 05:49:08 20° NNW 05:52:25 27° N 05:58:09 10° ENE
Meteor 2-4 Rocket 3.6 05:50:24 11° NNW 05:55:44 90° W 06:01:24 10° S
Meteor 2-13 Rocket 4.4 05:50:20 10° S 05:56:30 90° ESE 06:02:42 10° N
Cosmos 2074 Rocket 4.1 05:51:40 10° SSW 05:57:41 48° WNW 06:03:44 10° N
Cosmos 2369 Rocket 2.2 05:56:19 36° NW 05:58:31 60° WSW 06:04:06 10° S
SKYMED 2 3.6 05:55:23 10° S 05:59:37 52° W 06:00:03 50° WNW
SJ-6F 4.3 05:55:58 10° N 06:00:01 60° WNW 06:04:01 10° SSW
CRYOSAT 2 4.5 05:56:16 10° SSW 06:01:01 50° W 06:03:55 22° NNW
CZ-4C R/B 4.0 05:57:29 18° NNW 06:01:02 28° NNE 06:07:10 10° ENE
Cosmos 839 Rocket 4.2 05:57:15 22° NW 06:01:53 77° NE 06:08:02 10° SE
Okean 2 3.9 05:58:47 11° N 06:02:44 62° ENE 06:06:52 10° SSE
ATLAS 5 CENTAUR R/B 3.8 06:01:44 17° NNW 06:04:20 22° NNE 06:08:58 10° ENE
Cosmos 1603 3.7 06:01:03 17° SW 06:05:23 60° WNW 06:11:00 10° NNE
Cosmos 2341 Rocket 4.0 05:59:50 10° S 06:06:08 86° E 06:12:25 10° N
NOAA 6 4.0 06:02:29 10° N 06:07:33 61° WNW 06:12:35 10° SSW
Cosmos 2219 Rocket 4.1 06:10:18 13° NNW 06:10:18 13° NNW 06:12:29 10° N
USA 129 3.8 06:08:07 10° SSE 06:09:11 24° SSE 06:09:11 24° SSE
Cosmos 44 3.8 06:06:32 10° SSW 06:11:49 67° SE 06:16:56 10° NE
Cosmos 2184 Rocket 4.4 06:10:29 10° SW 06:16:09 37° WNW 06:21:54 10° N
CZ-4 R/B 2.9 06:13:31 10° NNE 06:17:14 38° E 06:20:53 10° SSE
Cosmos 1025 Rocket 3.0 06:14:51 19° NNW 06:17:51 60° W 06:22:08 10° S
Cosmos 1536 2.7 06:14:52 10° SSW 06:18:51 69° WNW 06:22:53 10° N
SL-24 R/B 4.5 06:16:38 10° NNE 06:22:20 87° WNW 06:27:04 10° SSW
YAOGAN 1 4.4 06:20:47 10° NNE 06:24:45 34° E 06:28:42 10° SSE
Cosmos 1633 3.1 06:23:58 10° SW 06:27:19 35° WNW 06:30:41 10° N
Cosmos 1943 3.1 06:22:37 10° SSW 06:28:16 79° WNW 06:33:58 10° NNE
Abrixas rocket 3.1 06:28:42 19° SW 06:30:51 47° SSE 06:34:06 10° E
USA 229 DEB 4.2 06:25:07 10° SSW 06:31:54 64° SE 06:38:48 10° NE
Cosmos 2154 Rocket 4.1 06:25:57 10° SSW 06:31:57 51° WNW 06:38:00 10° N
USA 229 4.2 06:25:13 10° SSW 06:32:00 64° SE 06:38:54 10° NE
Cosmos 2333 Rocket 4.0 06:34:29 12° NNW 06:34:58 12° NNW 06:37:17 10° N
Cosmos 1943 Rocket 2.2 06:32:15 16° NW 06:36:37 62° WSW 06:42:02 10° SSE
SOZ 3.8 06:36:43 41° SW 06:37:16 75° SSE 06:39:19 10° ENE
Meteor 2-8 Rocket 4.4 06:31:34 10° NNW 06:37:41 68° W 06:43:47 10° S
Cosmos 1420 Rocket 4.1 06:35:51 14° NNW 06:40:14 55° WSW 06:45:18 10° S
Lacrosse 5 rocket 2.6 06:38:18 19° NW 06:40:38 33° N 06:44:41 10° ENE
Okean 1 Rocket 3.8 06:37:55 10° SW 06:41:47 30° WNW 06:45:40 10° N
Lacrosse 4 Rocket 1.3 06:39:11 19° NW 06:42:05 71° WSW 06:46:09 10° SSE
SL-23 DEB 4.5 06:40:47 22° WSW 06:42:10 32° SSW 06:45:25 10° SE
Cosmos 1544 Rocket 3.5 06:39:29 10° S 06:43:50 89° ESE 06:48:17 10° N
ADEOS II 3.8 06:45:11 10° NNW 06:46:57 14° NW 06:46:57 14° NW
COSMO-SKYMED 1 3.9 06:44:55 10° SW 06:48:00 19° W 06:48:37 18° W
Ariane Rocket 3.2 06:45:25 10° N 06:50:16 47° WNW 06:55:06 10° SW
CZ-2C R/B 2.8 06:47:21 10° NNE 06:52:33 72° ESE 06:57:36 10° S
SL-16 R/B 3.6 06:50:56 16° NW 06:52:37 18° NW 06:56:22 10° N
SPOT 3 Rocket 4.0 06:48:47 10° NNE 06:53:56 65° ESE 06:59:02 10° S
USA 215 3.3 06:49:42 10° ENE 06:56:16 85° NNW 07:02:49 10° WSW
Cosmos 1331 Rocket 4.4 06:51:22 10° NNW 06:56:32 64° ENE 07:01:39 10° SE
Cosmos 1048 Rocket 4.0 06:53:33 10° SSW 06:58:42 86° ESE 07:03:57 10° NNE
Cosmos 44 Rocket 3.8 06:54:11 10° WSW 06:59:05 42° NW 07:03:55 10° NNE
Cosmos 1656 Rocket 3.7 06:53:28 10° NNW 06:59:09 84° WSW 07:04:51 10° SSE
AQUARIUS 4.3 06:54:48 10° NNE 06:59:21 81° ESE 07:03:51 10° SSW
Meteor 1-29 2.8 06:56:49 10° S 07:00:11 76° WSW 07:03:36 10° NNW
SL-8 Rocket 4.0 06:54:55 10° SSW 07:01:06 63° WNW 07:07:18 10° N
Cosmos 1500 3.9 06:58:25 10° S 07:02:06 57° E 07:05:50 10° NNE
Cosmos 1892 Rocket 4.2 06:59:55 10° NNW 07:04:01 36° W 07:08:05 10° SSW
Cosmos 1975 3.1 07:00:04 10° S 07:04:10 78° E 07:08:18 10° NNE
Cosmos 1980 Rocket 4.4 07:01:52 10° N 07:05:09 15° NNE 07:08:24 10° ENE
Cosmos 1867 4.3 07:01:25 10° NNW 07:06:45 49° NE 07:12:02 10° ESE
Cosmos 405 Rocket 3.3 07:04:42 10° N 07:08:30 57° ENE 07:12:11 10° SSE
Cosmos 1066 Rocket 4.2 07:03:07 10° NNW 07:08:33 86° E 07:14:01 10° SSE
Lacrosse 5 2.0 07:04:19 10° WSW 07:09:21 58° NNW 07:14:24 10° NE
Helios 1B rocket 2.7 07:06:58 10° S 07:10:59 48° W 07:15:03 10° NNW
Cosmos 2366 rocket 4.0 07:07:22 10° SSW 07:13:40 69° WNW 07:20:02 10° N
MSX 4.3 07:07:59 10° NNE 07:13:44 68° ESE 07:19:26 10° S
Cosmos 1340 3.9 07:11:11 10° NW 07:14:12 23° W 07:17:13 10° SW
Cosmos 1959 Rocket 4.5 07:08:45 10° SSW 07:14:46 59° WNW 07:20:49 10° N
Cosmos 1626 Rocket 3.6 07:12:34 10° NNW 07:17:00 69° W 07:21:22 10° S
IDEFIX/ARIANE 42P 2.5 07:14:54 10° N 07:20:06 74° WNW 07:25:17 10° SSW
MOS 1 4.3 07:14:37 10° NNE 07:20:18 82° WNW 07:25:57 10° SSW
Tiangong 2 3.8 07:20:16 10° SSW 07:20:36 10° SSW 07:20:57 10° SSW
CENTAUR R/B 3.8 07:15:44 10° WNW 07:21:31 28° N 07:27:54 10° NE
CSL-04 Rocket 4.3 07:16:58 10° N 07:22:00 36° WNW 07:26:59 10° SW
Cosmos 2218 Rocket 4.2 07:15:55 10° SSW 07:22:10 54° WNW 07:28:26 10° N
Cosmos 1461 3.6 07:19:09 10° SSW 07:23:22 59° SE 07:27:26 10° NE
SJ-7 4.5 07:19:37 10° N 07:23:46 61° WNW 07:27:49 10° SSW
SL-27 R/B 2.8 07:21:22 10° SSW 07:24:56 72° ESE 07:28:35 10° NNE
Cosmos 2084 3.1 07:28:12 10° SW 07:32:03 72° NW 07:35:51 10° NE
SL-16 R/B 4.4 07:30:00 10° N 07:32:19 12° NNE 07:34:39 10° NE
MONITOR-E 4.2 07:29:18 10° N 07:32:30 65° WNW 07:35:40 10° SSW
Cosmos 1455 Rocket 3.5 07:29:03 10° SW 07:33:05 38° WNW 07:37:11 10° N
Cosmos 1110 Rocket 4.1 07:28:07 10° NNW 07:33:19 60° WSW 07:38:25 10° S
